Sarasota, FL

6:47 PM EDT on May 24, 2017 (GMT -0400)
Sarasota-bradenton

Weather History for KSRQ - May, 2014

Change the Weather History Date:

Wednesday, May 14, 2014

  Actual Average Record
Temperature  
Mean Temperature 82 °F 76 °F  
Max Temperature 92 °F 85 °F 94 °F (1985)
Min Temperature 72 °F 67 °F 48 °F (1924)
Degree Days  
Heating Degree Days 0 0  
Month to date heating degree days 0 0  
Since 1 July heating degree days 345 477  
Cooling Degree Days 17 11  
Month to date cooling degree days 180 139  
Year to date cooling degree days 598 536  
Growing Degree Days 31 (Base 50)    
Moisture  
Dew Point 71 °F    
Average Humidity 82    
Maximum Humidity 93    
Minimum Humidity 52    
Precipitation  
Precipitation 0.78 in 0.05 in 1.14 in (1968)
Month to date precipitation 4.76 0.93  
Year to date precipitation 16.09 12.42  
Sea Level Pressure  
Sea Level Pressure 29.98 in    
Wind  
Wind Speed 11 mph (ESE)    
Max Wind Speed 32 mph    
Max Gust Speed 41 mph    
Visibility 8 miles    
Events Rain , Thunderstorm    
T = Trace of Precipitation, MM = Missing Value Source: NWS Daily Summary

Daily Weather History Graph

Daily Weather History Graph

Search for Another Location

Airport or City:

Trip Planner

Search our weather history database for the weather conditions in past years. The results will help you decide how hot, cold, wet, or windy it might be!

Date:

Astronomy

May. 14, 2014 Rise Set
Actual Time 6:42 AM EDT 8:11 PM EDT
Civil Twilight 6:16 AM EDT 8:36 PM EDT
Nautical Twilight 5:46 AM EDT 9:06 PM EDT
Astronomical Twilight 5:15 AM EDT 9:38 PM EDT
Moon 8:17 PM EDT (5/14) 6:35 AM EDT (5/14)
Length of Visible Light 14h 19m
Length of Day
13h 29m
Full, 100% of the Moon is Illuminated
May 14
Full
May 14
Full
May 21
Last Quarter
May 28
New
Jun 5
First Quarter

Hourly Weather History & Observations

Time (EDT) Temp. Heat Index Dew Point Humidity Pressure Visibility Wind Dir Wind Speed Gust Speed Precip Events Conditions
12:53 AM 77.0 °F - 71.1 °F 82% 30.03 in 10.0 mi East 11.5 mph - N/A   Clear
1:53 AM 75.9 °F - 71.1 °F 85% 30.01 in 10.0 mi East 13.8 mph - N/A   Clear
2:53 AM 75.0 °F - 71.1 °F 87% 29.99 in 10.0 mi East 13.8 mph - N/A   Clear
3:53 AM 75.0 °F - 71.1 °F 87% 29.98 in 10.0 mi East 9.2 mph - N/A   Partly Cloudy
4:02 AM 75.0 °F - 71.1 °F 87% 29.98 in 10.0 mi East 10.4 mph - N/A   Partly Cloudy
5:53 AM 75.0 °F - 71.1 °F 87% 30.00 in 10.0 mi East 8.1 mph - N/A   Clear
6:53 AM 73.9 °F - 71.1 °F 91% 30.01 in 10.0 mi East 8.1 mph - N/A   Clear
7:09 AM 73.9 °F - 71.1 °F 91% 30.01 in 10.0 mi East 9.2 mph - N/A   Mostly Cloudy
8:04 AM 75.9 °F - 72.0 °F 87% 30.03 in 10.0 mi East 10.4 mph - N/A   Scattered Clouds
8:53 AM 79.0 °F - 71.1 °F 77% 30.02 in 10.0 mi ESE 12.7 mph - N/A   Scattered Clouds
9:53 AM 82.0 °F 86.3 °F 71.1 °F 69% 30.02 in 10.0 mi ESE 16.1 mph 24.2 mph N/A   Clear
11:53 AM 87.1 °F 92.0 °F 70.0 °F 57% 30.01 in 10.0 mi ESE 16.1 mph - N/A   Scattered Clouds
12:53 PM 90.0 °F 94.5 °F 69.1 °F 50% 29.99 in 10.0 mi SE 13.8 mph 26.5 mph N/A   Scattered Clouds
1:53 PM 90.0 °F 94.5 °F 69.1 °F 50% 29.96 in 10.0 mi SE 13.8 mph 24.2 mph N/A   Scattered Clouds
2:53 PM 84.9 °F 90.7 °F 72.0 °F 65% 29.94 in 10.0 mi SSW 16.1 mph - N/A   Overcast
3:31 PM 82.9 °F 88.8 °F 73.0 °F 72% 29.95 in 10.0 mi SSW 12.7 mph - 0.01 in Thunderstorm Thunderstorm
3:53 PM 79.0 °F - 73.9 °F 84% 29.94 in 5.0 mi SSW 13.8 mph - 0.10 in Rain , Thunderstorm Light Rain
4:17 PM 79.0 °F - 73.0 °F 82% 29.94 in 3.0 mi South 17.3 mph - 0.04 in Rain Rain
5:32 PM 79.0 °F - 71.1 °F 77% 29.96 in 5.0 mi ESE 29.9 mph 41.4 mph 0.02 in Rain , Thunderstorm Light Thunderstorms and Rain
5:38 PM 73.0 °F - 69.1 °F 87% 29.96 in 0.8 mi ESE 26.5 mph 41.4 mph 0.28 in Rain , Thunderstorm Heavy Thunderstorms and Rain
5:43 PM 72.0 °F - 68.0 °F 87% 29.95 in 0.8 mi ESE 19.6 mph 40.3 mph 0.35 in Rain , Thunderstorm Heavy Rain
5:46 PM 72.0 °F - 68.0 °F 87% 29.95 in 1.0 mi ESE 17.3 mph 34.5 mph 0.40 in Rain , Thunderstorm Heavy Rain
5:53 PM 72.0 °F - 68.0 °F 87% 29.95 in 1.5 mi SE 13.8 mph - 0.47 in Rain Rain
6:02 PM 72.0 °F - 69.1 °F 91% 29.94 in 1.2 mi ESE 6.9 mph - 0.14 in Rain , Thunderstorm Heavy Rain
6:10 PM 72.0 °F - 70.0 °F 93% 29.94 in 10.0 mi ENE 6.9 mph - 0.15 in Rain , Thunderstorm Light Rain
6:17 PM 73.0 °F - 70.0 °F 90% 29.94 in 10.0 mi East 5.8 mph - 0.15 in Rain Light Rain
6:53 PM 73.9 °F - 69.1 °F 85% 29.95 in 10.0 mi ESE 4.6 mph - 0.15 in Rain Light Rain
7:53 PM 75.9 °F - 71.1 °F 85% 29.96 in 10.0 mi East 4.6 mph - 0.00 in   Mostly Cloudy
8:53 PM 75.0 °F - 72.0 °F 90% 29.97 in 10.0 mi ESE 6.9 mph - N/A   Overcast
9:53 PM 75.0 °F - 72.0 °F 90% 29.99 in 10.0 mi East 4.6 mph - N/A   Overcast
10:53 PM 75.0 °F - 71.1 °F 87% 29.99 in 10.0 mi ESE 5.8 mph - N/A   Mostly Cloudy
11:53 PM 75.0 °F - 71.1 °F 87% 29.99 in 10.0 mi SE 3.5 mph - N/A   Clear